{"data":{"norad_id":60929,"epoch":"2026-09-21T22:09:42.550560Z","epoch_age_seconds":65450,"freshness":"FRESH","line1":"1 60929U 24155F   26264.92340915  .00094997  00000+0  77970-3 0  9996","line2":"2 60929  53.1572  93.8549 0000766  78.7415 281.3689 15.69719950119224","mean_motion":15.6971995,"eccentricity":7.66e-5,"inclination_deg":53.1572,"raan_deg":93.8549,"arg_perigee_deg":78.7415,"mean_anomaly_deg":281.3689,"bstar":0.0007797,"rev_number":11922,"period_min":91.736108724362,"perigee_km":359.18215929659,"apogee_km":360.2143956611,"semimajor_km":6737.8352774788,"source":"CELESTRAK","updated_at":"2026-09-22T09:00:49.289500Z"}}